"datetime","# probes","# resolvers","can_ipv6","can_ipv6_prbs","can_tcp","can_tcp_prbs","can_tcp6","can_tcp6_prbs","does_ecs","does_ecs_prbs","does_flagday","does_flagday_prbs","does_rov4","does_rov4_prbs","does_rov6","does_rov6_prbs","does_qnamemin","doesnt_qnamemin","does_qnamemin_prbs","doesnt_qnamemin_prbs","does_nxdomain","doesnt_nxdomain","does_nxdomain_prbs","doesnt_nxdomain_prbs","has_ta_19036","hasnt_ta_19036","has_ta_19036_prbs","hasnt_ta_19036_prbs","has_ta_20326","hasnt_ta_20326","has_ta_20326_prbs","hasnt_ta_20326_prbs","can_rsamd5","cannot_rsamd5","broken_rsamd5","can_rsamd5_prbs","cannot_rsamd5_prbs","broken_rsamd5_prbs","can_dsa","cannot_dsa","broken_dsa","can_dsa_prbs","cannot_dsa_prbs","broken_dsa_prbs","can_rsasha1","cannot_rsasha1","broken_rsasha1","can_rsasha1_prbs","cannot_rsasha1_prbs","broken_rsasha1_prbs","can_dsansec3","cannot_dsansec3","broken_dsansec3","can_dsansec3_prbs","cannot_dsansec3_prbs","broken_dsansec3_prbs","can_rsansec3","cannot_rsansec3","broken_rsansec3","can_rsansec3_prbs","cannot_rsansec3_prbs","broken_rsansec3_prbs","can_rsasha256","cannot_rsasha256","broken_rsasha256","can_rsasha256_prbs","cannot_rsasha256_prbs","broken_rsasha256_prbs","can_rsasha512","cannot_rsasha512","broken_rsasha512","can_rsasha512_prbs","cannot_rsasha512_prbs","broken_rsasha512_prbs","can_eccgost","cannot_eccgost","broken_eccgost","can_eccgost_prbs","cannot_eccgost_prbs","broken_eccgost_prbs","can_ecdsa256","cannot_ecdsa256","broken_ecdsa256","can_ecdsa256_prbs","cannot_ecdsa256_prbs","broken_ecdsa256_prbs","can_ecdsa384","cannot_ecdsa384","broken_ecdsa384","can_ecdsa384_prbs","cannot_ecdsa384_prbs","broken_ecdsa384_prbs","can_ed25519","cannot_ed25519","broken_ed25519","can_ed25519_prbs","cannot_ed25519_prbs","broken_ed25519_prbs","can_ed448","cannot_ed448","broken_ed448","can_ed448_prbs","cannot_ed448_prbs","broken_ed448_prbs","can_gost","cannot_gost","broken_gost","can_gost_prbs","cannot_gost_prbs","broken_gost_prbs","can_sha384","cannot_sha384","broken_sha384","can_sha384_prbs","cannot_sha384_prbs","broken_sha384_prbs","is_internal","is_forwarding","is_external","is_internal_prbs","is_forwarding_prbs","is_external_prbs"
2017-06-20T23:59:58Z,110,176,156,100,174,109,153,97,93,64,0,0,0,0,0,0,2,174,1,109,0,174,0,109,0,0,0,0,0,0,0,0,44,42,90,32,44,58,84,92,0,58,68,0,175,1,0,110,20,0,85,91,0,59,67,0,175,1,0,110,20,0,176,0,0,110,19,0,175,1,0,110,20,0,42,131,3,29,90,2,168,6,2,106,24,1,167,7,2,106,25,1,0,173,3,0,108,2,0,171,5,0,107,3,130,42,4,81,47,3,170,6,0,107,24,0,66,31,79,55,29,49
2017-06-21T23:59:59Z,113,181,160,103,179,112,156,100,94,64,0,0,0,0,0,0,2,179,1,112,0,179,0,112,0,0,0,0,0,0,0,0,46,45,90,33,47,58,87,93,1,59,70,1,180,1,0,112,21,0,90,90,1,62,67,1,181,0,0,113,20,0,181,0,0,113,21,0,181,0,0,113,20,0,44,134,3,30,92,2,172,7,2,108,26,1,172,7,2,108,26,1,0,178,3,0,111,2,0,177,4,0,111,3,132,45,4,82,50,3,175,6,0,110,26,0,71,31,79,58,29,50
2017-06-22T23:59:58Z,115,183,164,106,181,114,160,102,92,61,0,0,0,0,0,0,2,181,1,114,0,181,0,114,0,0,0,0,0,0,0,0,44,50,89,31,50,57,87,95,1,60,71,1,180,3,0,112,23,0,89,94,0,62,69,0,181,2,0,113,22,0,183,0,0,115,20,0,181,2,0,113,22,0,42,137,4,30,94,3,172,9,2,109,28,1,173,8,2,109,27,1,0,180,3,0,113,2,0,180,3,0,113,2,132,47,4,82,52,3,174,9,0,110,28,0,73,31,79,61,29,49
2017-06-23T23:59:59Z,114,182,163,105,178,113,158,100,92,62,0,0,0,0,0,0,2,180,1,113,0,180,0,113,0,0,0,0,0,0,0,0,45,47,90,32,49,58,89,93,0,61,69,0,180,2,0,112,22,0,89,93,0,62,68,0,181,1,0,114,21,0,182,0,0,114,20,0,181,1,0,113,21,0,45,134,3,31,92,2,171,9,2,108,28,1,172,8,2,108,27,1,0,178,4,0,112,3,0,179,3,0,112,2,132,46,4,82,51,3,175,7,0,110,26,0,72,31,79,60,30,49
2017-06-24T23:59:59Z,110,176,158,102,174,109,154,98,89,61,0,0,0,0,0,0,0,176,0,110,0,174,0,109,0,0,0,0,0,0,0,0,44,44,88,31,44,57,86,90,0,59,67,0,176,0,0,110,19,0,90,86,0,62,64,0,175,1,0,110,20,0,176,0,0,110,19,0,176,0,0,110,19,0,44,129,3,30,89,2,168,6,2,106,24,1,168,6,2,106,24,1,0,171,5,0,107,3,1,172,3,1,108,2,129,42,5,81,47,4,169,7,0,107,25,0,69,30,77,57,28,48
2017-06-25T23:59:59Z,113,182,164,105,180,112,158,100,92,62,0,0,0,0,0,0,2,180,1,112,0,180,0,112,0,0,0,0,0,0,0,0,47,44,91,34,45,58,90,91,1,62,67,1,182,0,0,113,19,0,91,91,0,62,67,0,182,0,0,113,19,0,182,0,0,113,19,0,181,1,0,113,20,0,44,133,5,30,91,3,172,8,2,108,25,1,172,8,2,108,25,1,1,176,5,1,110,3,0,177,5,0,110,3,130,46,6,81,49,4,173,9,0,109,26,0,73,32,77,60,28,48
2017-06-26T23:59:59Z,117,185,166,108,182,116,160,103,93,62,0,0,0,0,0,0,2,183,1,116,0,185,0,117,0,0,0,0,0,0,0,0,46,48,91,33,50,58,92,93,0,63,71,0,182,3,0,114,25,0,94,91,0,65,69,0,184,1,0,116,22,0,185,0,0,117,22,0,185,0,0,117,21,0,43,136,6,31,94,4,175,8,2,111,28,1,175,8,2,111,28,1,0,180,5,0,114,3,0,179,6,0,114,4,132,47,6,82,53,4,177,8,0,112,29,0,75,31,79,63,28,49
2017-06-27T23:59:58Z,117,186,166,108,184,116,160,103,97,64,0,0,0,0,0,0,2,184,1,116,0,184,0,116,0,0,0,0,0,0,0,0,49,45,92,36,51,58,91,94,1,64,71,1,185,1,0,116,23,0,95,91,0,66,69,0,186,0,0,117,24,0,186,0,0,117,24,0,185,1,0,116,23,0,45,135,6,32,94,4,179,5,2,113,27,1,179,5,2,113,27,1,0,181,5,0,114,3,0,181,5,0,114,3,134,46,6,83,53,4,179,7,0,113,28,0,74,32,80,62,31,49
2017-06-28T23:59:58Z,117,186,166,108,184,116,162,104,99,68,0,0,0,0,0,0,2,184,1,116,0,184,0,116,0,0,0,0,0,0,0,0,46,47,93,33,50,60,91,94,1,64,71,1,185,1,0,116,23,0,91,93,2,64,70,1,185,1,0,117,23,0,186,0,0,117,22,0,185,1,0,117,23,0,45,135,6,32,94,4,178,6,2,113,27,1,178,6,2,113,27,1,0,180,6,0,114,4,0,181,5,0,114,3,132,48,6,83,54,4,179,7,0,114,28,0,74,32,80,62,32,50
2017-06-29T23:59:59Z,119,189,169,110,187,118,164,106,97,66,0,0,0,0,0,0,2,187,1,118,0,189,0,119,0,0,0,0,0,0,0,0,49,44,96,36,50,63,93,96,0,64,74,0,189,0,0,119,22,0,94,95,0,65,73,0,189,0,0,119,21,0,189,0,0,119,22,1,189,0,0,119,21,0,44,139,6,31,98,4,177,10,2,113,30,1,178,9,2,113,29,1,0,182,7,0,115,4,0,183,6,0,116,4,137,46,6,86,52,4,181,8,0,115,28,0,74,33,82,61,32,51
2017-06-30T23:59:58Z,117,183,164,108,181,116,156,103,97,66,0,0,0,0,0,0,2,181,1,116,0,181,0,116,0,0,0,0,0,0,0,0,47,42,94,35,49,61,88,95,0,61,73,0,180,3,0,114,25,0,89,94,0,62,72,0,183,0,0,117,21,0,183,0,0,117,21,2,183,0,0,117,21,0,44,134,5,30,96,3,173,8,2,111,29,1,173,8,2,111,29,1,0,177,6,0,114,4,0,177,6,0,114,4,133,44,6,84,53,4,175,8,0,112,29,0,69,33,81,59,31,51
2017-07-01T23:59:59Z,114,180,161,105,178,113,156,101,96,66,0,0,0,0,0,0,0,180,0,114,0,180,0,114,0,0,0,0,0,0,0,0,47,40,93,35,44,60,91,89,0,63,68,0,180,0,0,114,20,0,91,89,0,63,68,0,180,0,0,114,20,0,180,0,0,114,21,0,180,0,0,114,20,0,42,132,6,30,93,4,171,7,2,109,26,1,171,7,2,109,26,1,0,175,5,0,111,3,0,173,7,0,110,4,132,42,6,83,49,4,174,6,0,111,25,0,68,33,79,58,29,50
2017-07-02T23:59:59Z,117,184,165,108,182,116,160,104,98,68,0,0,0,0,0,0,2,182,1,116,0,184,0,117,0,0,0,0,0,0,0,0,47,43,94,35,49,61,88,96,0,61,73,0,183,1,0,116,23,0,89,94,1,62,72,1,184,0,0,117,22,0,184,0,0,117,22,0,184,0,0,117,22,0,40,137,7,28,97,4,177,5,2,113,27,1,177,5,2,113,27,1,0,179,5,0,114,3,1,177,6,1,114,4,134,44,6,84,52,4,178,6,0,114,27,0,71,32,81,60,31,51
2017-07-03T23:59:59Z,117,188,168,108,186,116,161,104,99,66,0,0,0,0,0,0,2,186,1,116,0,186,0,116,0,0,0,0,0,0,0,0,47,49,92,35,50,59,96,92,0,66,70,0,187,1,0,116,22,0,95,93,0,66,70,0,188,0,0,117,21,0,188,0,0,117,21,0,187,1,0,117,22,0,43,138,7,29,97,4,176,9,3,111,29,2,178,8,2,111,28,1,0,183,5,0,114,3,1,182,5,1,114,3,133,49,6,81,54,4,180,8,0,113,28,0,74,34,80,61,30,50
2017-07-04T23:59:59Z,116,185,165,107,183,115,158,103,90,63,0,0,0,0,0,0,2,183,1,115,0,185,0,116,0,0,0,0,0,0,0,0,48,48,89,36,50,58,95,90,0,65,69,0,181,4,0,114,23,0,96,89,0,66,68,0,185,0,0,116,20,0,185,0,0,116,21,0,184,1,0,116,21,0,45,135,5,30,95,3,174,9,2,110,27,1,174,9,2,110,27,1,0,179,6,0,113,4,0,179,6,0,113,4,128,51,6,79,54,4,176,9,0,111,27,0,74,35,76,61,32,48
2017-07-05T23:59:59Z,118,187,167,109,184,117,159,104,90,61,0,0,0,0,0,0,2,185,1,117,0,187,0,118,0,0,0,0,0,0,0,0,47,50,90,35,53,58,96,91,0,66,70,0,184,3,0,115,24,0,97,90,0,67,69,0,185,2,0,116,23,0,187,0,0,118,22,0,185,2,0,116,23,0,43,137,7,30,96,4,175,10,2,110,30,1,176,9,2,111,29,1,1,181,5,1,115,3,1,181,5,1,115,3,129,52,6,80,56,4,179,8,0,113,28,0,77,32,78,63,31,49
2017-07-06T23:59:58Z,117,186,166,108,183,116,155,104,92,64,0,0,0,0,0,0,2,184,1,116,0,184,0,116,0,0,0,0,0,0,0,0,47,51,88,35,50,58,95,90,1,64,71,1,185,1,0,116,21,0,98,88,0,66,69,0,186,0,0,117,21,0,186,0,0,117,21,0,186,0,0,117,21,0,45,135,6,30,95,4,176,8,2,111,27,1,176,8,2,111,27,1,0,181,5,0,114,3,1,179,6,1,113,4,129,51,6,81,53,4,179,7,0,113,26,0,78,33,75,62,31,48
2017-07-07T23:59:59Z,116,187,166,107,184,115,161,104,90,64,0,0,0,0,0,0,2,185,1,115,0,184,0,115,0,0,0,0,0,0,0,0,51,49,86,37,49,56,100,85,1,68,67,1,186,0,0,116,19,0,100,86,0,67,67,0,187,0,0,116,19,0,187,0,0,116,19,0,187,0,0,116,19,0,47,135,5,32,94,3,177,8,2,112,24,1,177,8,2,112,24,1,2,180,5,2,113,3,1,181,5,1,113,3,129,51,6,81,51,4,178,8,0,113,24,0,79,33,74,63,31,47
2017-07-08T23:59:59Z,115,186,166,106,184,114,161,103,91,61,0,0,0,0,0,0,2,184,1,114,0,186,0,115,0,0,0,0,0,0,0,0,50,49,87,36,49,56,95,91,0,64,70,0,184,2,0,113,21,0,99,87,0,66,67,0,186,0,0,115,19,0,186,0,0,115,19,0,186,0,0,115,19,0,46,135,5,31,93,3,174,10,2,109,26,1,174,10,2,109,26,1,1,180,5,1,112,3,2,179,5,1,112,3,129,50,7,81,50,5,177,9,0,111,25,0,78,32,76,62,30,48
2017-07-09T23:59:59Z,117,188,167,108,185,116,161,104,95,64,0,0,0,0,0,0,3,185,2,116,0,185,0,116,0,0,0,0,0,0,0,0,50,47,91,36,48,59,96,92,0,65,70,0,186,2,0,115,20,0,95,92,1,64,70,1,187,1,0,116,19,0,188,0,0,117,18,0,187,1,0,116,19,0,41,140,7,29,96,5,179,7,2,113,23,1,179,7,2,113,23,1,0,182,6,0,114,4,0,182,6,0,114,4,129,52,6,81,51,4,178,9,0,113,24,0,79,32,77,64,28,48
2017-07-10T23:59:59Z,120,192,172,111,190,119,167,107,95,64,0,0,0,0,0,0,2,190,2,119,0,192,0,120,0,0,0,0,0,0,0,0,49,48,95,36,50,61,96,96,0,66,72,0,191,1,0,119,21,0,98,94,0,66,71,0,192,0,0,120,21,0,192,0,0,120,21,0,192,0,0,120,21,0,43,144,5,30,98,3,180,10,2,114,27,1,180,10,2,114,27,1,0,187,5,0,117,3,0,185,7,0,116,4,132,54,6,83,54,4,180,12,0,114,28,0,79,32,81,64,29,50
2017-07-11T23:59:59Z,118,189,169,109,187,117,164,105,96,64,0,0,0,0,0,0,3,186,2,117,0,189,0,118,0,0,0,0,0,0,0,0,50,46,93,37,48,61,97,92,0,66,69,0,188,1,0,117,20,0,97,92,0,65,69,0,189,0,0,118,20,0,189,0,0,118,20,0,189,0,0,118,20,0,42,141,6,29,96,4,178,9,2,113,25,1,178,9,2,113,25,1,0,183,6,0,115,4,0,181,8,0,114,5,130,52,7,82,52,5,178,11,0,113,26,0,77,33,79,63,31,49
2017-07-12T23:59:59Z,115,184,164,106,182,114,160,103,93,64,0,0,0,0,0,0,3,181,2,114,0,182,0,114,0,0,0,0,0,0,0,0,47,48,89,34,49,59,92,92,0,62,70,0,182,2,0,113,21,0,94,89,1,63,68,1,184,0,0,115,20,0,184,0,0,115,20,0,184,0,0,115,20,0,42,135,7,29,93,5,171,11,2,108,27,1,172,10,2,109,26,1,0,177,7,0,112,5,0,178,6,0,112,4,125,52,7,79,52,5,174,10,0,110,26,0,75,33,76,60,30,48
2017-07-13T23:59:59Z,116,188,167,107,185,115,162,103,91,63,0,0,0,0,0,0,4,184,3,115,0,184,0,114,0,0,0,0,0,0,0,0,50,48,90,36,49,60,98,90,0,66,69,0,188,0,0,116,19,0,100,87,1,67,66,1,188,0,0,116,19,0,188,0,0,116,19,0,188,0,0,116,19,0,45,137,6,31,93,4,178,8,2,112,24,1,180,6,2,113,23,1,0,182,6,0,113,4,1,181,6,1,113,4,129,52,7,81,51,5,180,8,0,113,24,0,78,33,77,61,30,48
2017-07-14T23:59:59Z,116,186,165,107,184,115,160,103,88,62,0,0,0,0,0,0,3,183,2,115,0,184,1,115,0,0,0,0,0,0,0,0,49,47,90,35,49,60,97,89,0,66,69,1,185,1,0,115,20,1,98,88,0,65,68,1,186,0,0,116,19,1,186,0,0,116,19,1,186,0,0,116,19,1,44,136,6,30,94,5,175,9,2,111,25,2,175,9,2,111,25,2,0,180,6,0,113,5,0,180,6,0,113,5,127,51,8,81,51,7,177,9,0,112,25,0,76,34,76,60,31,48
2017-07-15T23:59:59Z,118,188,167,109,186,117,162,105,89,61,0,0,0,0,0,0,3,185,2,117,0,186,0,117,0,0,0,0,0,0,0,0,50,50,88,36,50,59,99,89,0,67,69,0,186,2,0,116,21,0,100,88,0,67,68,0,187,1,0,117,20,0,188,0,0,118,19,0,188,0,0,118,19,0,43,137,8,30,95,5,176,10,2,112,26,1,176,10,2,112,26,1,0,182,6,0,115,4,0,182,6,0,115,4,127,53,8,80,53,6,178,10,0,113,26,0,80,32,76,64,29,48
2017-07-16T23:59:59Z,118,188,167,109,186,117,162,105,90,63,0,0,0,0,0,0,3,185,2,117,0,186,0,117,0,0,0,0,0,0,0,0,50,50,88,36,51,59,98,90,0,67,69,0,187,1,0,117,20,0,101,87,0,68,67,0,188,0,0,118,19,0,188,0,0,118,19,0,188,0,0,118,19,0,44,138,6,31,95,4,178,8,2,113,25,1,178,8,2,113,25,1,0,182,6,0,115,4,0,182,6,0,115,4,128,52,8,82,52,6,179,9,0,114,25,0,80,32,76,64,29,48
2017-07-17T23:59:59Z,121,196,176,113,194,120,170,109,97,67,0,0,0,0,0,0,3,193,2,120,0,194,0,120,0,0,0,0,0,0,0,0,50,50,96,36,52,63,99,97,0,66,73,0,194,2,0,119,22,0,99,96,1,66,72,1,195,1,0,120,21,0,196,0,0,121,20,0,196,0,0,121,20,0,40,150,6,28,101,4,183,11,2,114,28,1,183,11,2,114,28,1,1,187,8,1,117,5,0,190,6,0,118,4,131,56,9,82,55,6,185,11,0,115,28,0,80,33,83,64,31,51
2017-07-18T23:59:59Z,120,195,175,112,192,119,170,108,97,66,0,0,0,0,0,0,3,192,2,119,0,195,0,120,0,0,0,0,0,0,0,0,49,49,97,35,51,63,99,96,0,66,72,0,193,2,0,118,22,0,101,94,0,67,70,0,194,1,0,119,21,0,195,0,0,120,21,0,194,1,0,119,21,0,44,143,8,30,97,5,185,8,2,115,26,1,185,8,2,115,26,1,2,187,6,1,116,4,0,189,6,0,117,4,136,52,7,84,53,5,189,6,0,118,25,0,79,33,83,62,31,51
2017-07-19T23:59:59Z,119,193,173,111,191,118,169,108,96,64,0,0,0,0,0,0,2,191,2,118,0,193,0,119,0,0,0,0,0,0,0,0,48,51,94,34,52,61,97,96,0,65,73,0,191,2,0,117,23,0,100,93,0,67,70,0,192,1,0,118,22,0,193,0,0,119,21,0,192,1,0,118,22,0,45,143,5,30,98,3,183,8,2,114,27,1,181,10,2,113,28,1,0,187,6,0,116,4,1,187,5,1,116,3,134,53,6,83,55,4,186,7,0,116,26,0,77,33,83,61,31,51
2017-07-20T23:59:59Z,117,192,172,109,190,116,168,106,95,64,0,0,0,0,0,0,3,189,2,116,0,190,0,116,0,0,0,0,0,0,0,0,49,48,95,35,49,62,96,94,2,64,70,1,192,0,0,117,20,0,97,93,2,64,69,1,192,0,0,117,20,0,192,0,0,117,20,0,192,0,0,117,20,0,44,142,6,29,96,4,182,8,2,113,25,1,182,8,2,113,25,1,0,186,6,0,114,4,0,186,6,0,114,4,131,51,10,81,52,7,182,10,0,113,26,0,78,31,83,61,29,51
2017-07-21T23:59:59Z,117,193,174,109,191,116,170,106,94,63,0,0,0,0,0,0,3,190,2,116,0,193,0,117,0,0,0,0,0,0,0,0,47,51,95,33,49,62,97,96,0,64,70,0,193,0,0,117,20,0,99,94,0,65,68,0,193,0,0,117,20,0,193,0,0,117,20,0,193,0,0,117,20,0,44,143,6,29,95,4,182,9,2,112,26,1,181,10,2,112,27,1,0,187,6,0,114,4,0,186,7,0,114,5,132,54,7,81,53,5,184,9,0,113,26,0,79,31,83,61,29,51
2017-07-22T23:59:59Z,118,195,176,110,192,116,171,106,97,64,0,0,0,0,0,0,2,193,2,117,0,192,0,116,0,0,0,0,0,0,0,0,48,49,98,34,49,63,96,99,0,63,73,0,194,1,0,117,22,0,99,96,0,65,70,0,195,0,0,118,21,0,195,0,0,118,21,0,195,0,0,118,21,0,42,147,6,28,98,4,184,9,2,114,27,1,185,8,2,114,26,1,1,189,5,1,115,3,0,190,5,0,115,3,136,53,6,83,53,4,186,9,0,115,27,0,78,32,85,60,29,52
2017-07-23T23:59:59Z,117,191,172,109,189,116,168,106,98,65,0,0,0,0,0,0,3,188,3,115,0,189,0,116,0,0,0,0,0,0,0,0,47,50,94,33,49,61,93,96,2,63,71,1,189,2,0,115,22,0,96,94,1,64,70,1,189,2,0,116,22,0,191,0,0,117,20,0,188,3,0,115,23,0,42,144,5,28,97,3,179,10,2,111,27,1,179,10,2,112,27,1,1,185,5,1,114,3,0,186,5,0,114,3,132,53,6,81,53,4,182,9,0,113,26,0,76,32,83,60,28,51
2017-07-24T23:59:59Z,117,190,171,109,188,116,167,106,100,67,0,0,0,0,0,0,2,188,2,116,0,188,0,116,0,0,0,0,0,0,0,0,47,49,94,33,49,61,94,96,0,63,72,0,187,3,0,115,23,0,96,94,0,64,70,0,190,0,0,117,21,0,190,0,0,117,21,0,190,0,0,117,20,0,42,143,5,28,97,3,173,15,2,108,31,1,177,11,2,111,27,1,0,185,5,0,114,3,0,185,5,0,114,3,128,56,6,78,56,4,179,10,1,112,26,1,73,34,83,59,29,51
2017-07-25T23:59:59Z,116,191,173,108,189,115,169,105,99,65,0,0,0,0,0,0,3,188,2,115,0,191,0,116,0,0,0,0,0,0,0,0,46,50,95,32,47,62,94,97,0,62,70,0,188,3,0,115,21,0,96,95,0,63,68,0,190,1,0,116,20,0,191,0,0,116,19,0,189,2,0,115,20,0,43,141,7,28,95,5,181,8,2,112,24,1,181,8,2,112,24,1,0,185,6,0,113,4,0,185,6,0,113,4,131,53,7,80,52,5,184,7,0,114,24,0,73,35,83,57,31,51
2017-07-26T23:59:59Z,117,192,174,109,189,116,169,105,96,64,0,0,0,0,0,0,2,190,2,116,0,192,0,117,0,0,0,0,0,0,0,0,48,48,96,34,48,62,93,99,0,62,72,0,189,3,0,115,23,0,95,97,0,62,71,0,192,0,0,117,21,0,192,0,0,117,21,0,190,2,0,116,23,0,43,144,5,28,97,3,182,8,2,113,27,1,180,10,2,112,28,1,0,186,6,0,114,4,1,186,5,1,114,3,133,53,6,81,54,4,186,6,0,115,26,0,76,31,85,60,28,52
2017-07-27T23:59:59Z,119,195,177,111,192,117,172,107,99,66,0,0,0,0,0,0,2,193,2,118,0,192,0,117,0,0,0,0,0,0,0,0,48,48,98,34,50,63,95,99,0,64,72,0,194,0,0,119,22,0,96,98,0,64,71,0,193,2,0,118,24,0,195,0,0,119,21,0,193,1,0,118,23,0,39,151,5,26,101,3,184,8,2,115,28,1,184,8,2,115,28,1,2,188,5,1,115,3,0,188,7,0,115,4,132,57,6,81,57,4,186,8,0,116,28,0,79,30,86,62,27,53
2017-07-28T23:59:59Z,119,196,178,111,193,118,174,108,99,65,0,0,0,0,0,0,3,193,2,118,0,194,0,118,0,0,0,0,0,0,0,0,52,47,96,37,48,62,99,96,0,66,70,0,193,2,0,117,22,0,101,94,0,66,68,0,195,1,0,118,21,0,196,0,0,119,20,0,194,1,0,118,21,0,41,149,6,28,98,4,185,8,2,114,26,1,185,8,2,115,26,1,0,190,6,0,116,4,0,190,6,0,116,4,134,55,7,82,54,5,185,10,0,114,27,0,80,31,85,62,28,52
2017-07-29T23:59:59Z,116,189,172,109,187,115,168,106,93,62,0,0,0,0,0,0,2,187,2,115,0,189,0,116,0,0,0,0,0,0,0,0,50,46,92,35,48,60,94,94,0,63,69,0,187,1,0,115,23,0,93,93,2,62,68,1,188,1,0,115,22,0,189,0,0,116,22,0,186,1,1,114,22,1,39,147,3,26,98,2,178,8,2,111,27,1,178,8,2,111,27,1,0,185,4,0,114,3,0,185,4,0,114,3,130,54,5,79,55,4,181,7,0,113,26,0,77,29,83,61,28,51
2017-07-30T23:59:59Z,115,189,172,108,185,114,167,105,97,66,0,0,0,0,0,0,2,187,2,114,0,185,0,113,0,0,0,0,0,0,0,0,48,46,94,34,49,62,91,97,0,61,70,0,187,1,0,114,23,0,94,94,0,62,68,0,189,0,0,115,22,0,189,0,0,115,22,0,187,1,0,115,23,0,40,146,3,26,97,2,179,7,2,111,27,1,179,7,2,111,27,1,0,184,5,0,112,3,0,185,4,0,113,3,129,56,4,79,56,3,181,7,0,113,27,0,76,29,84,60,27,52
2017-07-31T23:59:59Z,116,191,174,109,189,115,168,105,99,66,0,0,0,0,0,0,1,190,1,116,0,189,0,115,0,0,0,0,0,0,0,0,50,45,95,36,47,62,93,97,0,62,69,0,187,3,0,115,22,0,94,96,0,62,68,0,191,0,0,116,20,0,191,0,0,116,20,0,190,0,0,116,20,0,38,149,4,26,97,3,182,6,2,113,24,1,182,6,2,113,24,1,0,187,4,0,114,3,1,186,4,1,114,3,130,54,7,80,53,5,182,8,0,113,25,0,75,31,85,58,29,52
2017-08-01T23:59:58Z,114,187,170,107,185,113,166,104,95,63,0,0,0,0,0,0,1,186,1,114,0,187,0,114,0,0,0,0,0,0,0,0,49,42,95,35,44,62,89,97,0,60,69,0,186,0,0,114,19,0,94,93,0,61,67,0,186,1,0,114,20,0,187,0,0,114,19,0,187,0,0,114,19,0,41,142,4,27,94,3,176,8,2,109,25,1,176,8,2,109,25,1,2,181,4,1,111,3,0,183,4,0,112,3,130,52,5,79,52,4,179,7,0,112,24,0,72,31,84,56,30,51
2017-08-02T23:59:59Z,113,186,169,106,184,112,165,103,93,62,0,0,0,0,0,0,0,186,1,113,0,182,1,111,0,0,0,0,0,0,0,0,49,43,93,34,45,60,90,93,2,61,67,2,185,0,0,113,20,1,93,93,0,62,67,0,185,1,0,113,21,0,186,0,0,113,20,0,186,0,0,113,20,0,38,145,3,25,96,3,177,6,2,110,24,2,176,7,2,110,25,1,2,181,3,1,110,2,0,183,3,0,111,2,129,53,4,78,53,3,179,6,0,111,23,1,71,31,84,55,30,51
2017-08-03T23:59:59Z,116,188,171,109,186,115,167,106,96,65,0,0,0,0,0,0,1,187,2,116,0,188,1,116,0,0,0,0,0,0,0,0,48,45,94,34,49,61,92,95,0,62,70,1,184,3,0,114,24,1,94,94,0,62,69,0,188,0,0,116,22,0,188,0,0,116,22,0,188,0,0,116,21,0,38,147,3,25,99,3,178,7,2,112,25,2,178,7,2,112,26,1,0,184,4,0,114,3,0,184,4,0,114,3,130,54,4,79,56,3,182,5,0,114,25,1,72,31,85,57,30,52
2017-08-04T23:59:58Z,114,187,170,107,185,113,166,104,97,65,0,0,0,0,0,0,1,186,1,114,0,185,0,113,0,0,0,0,0,0,0,0,48,45,93,34,45,61,93,93,0,62,67,0,186,0,0,114,19,0,96,91,0,62,66,0,187,0,0,114,19,0,187,0,0,114,19,0,186,1,0,114,20,0,40,142,5,27,94,4,176,8,2,110,25,1,176,8,2,110,25,1,0,183,4,0,112,3,0,181,6,0,111,4,128,54,5,78,53,4,180,6,0,112,23,0,73,31,83,56,30,51
2017-08-05T23:59:59Z,113,183,166,106,181,112,162,103,95,64,0,0,0,0,0,0,1,182,1,113,0,183,0,113,0,0,0,0,0,0,0,0,47,41,94,33,44,62,89,93,0,60,68,0,181,1,0,112,21,0,93,90,0,61,66,0,183,0,0,113,19,0,183,0,0,113,20,0,183,0,0,113,20,0,40,139,4,26,94,3,173,7,2,109,24,1,173,7,2,109,25,1,0,179,4,0,111,3,0,177,6,0,110,4,128,50,5,78,52,4,176,6,0,111,24,0,69,31,83,55,29,51
2017-08-06T23:59:59Z,119,190,174,113,188,118,170,110,96,66,0,0,0,0,0,0,2,188,2,118,0,190,0,119,0,0,0,0,0,0,0,0,47,47,95,33,50,63,95,94,0,64,70,0,186,3,0,116,22,0,95,94,1,63,70,1,187,3,0,116,23,0,190,0,0,119,22,0,188,2,0,117,21,0,40,146,4,27,99,3,177,10,2,112,28,1,179,8,2,113,26,1,0,186,4,0,117,3,2,184,4,1,116,3,131,54,5,81,55,4,183,6,0,116,24,0,74,32,84,59,30,52
2017-08-07T23:59:59Z,116,188,171,109,185,115,167,106,96,65,0,0,0,0,0,0,2,186,2,115,0,184,0,114,0,0,0,0,0,0,0,0,47,44,96,33,46,63,94,93,0,63,68,0,187,0,0,116,19,0,97,91,0,64,67,0,188,0,0,116,19,0,188,0,0,116,20,0,188,0,0,116,19,0,38,146,4,25,98,3,179,6,2,113,23,1,179,6,2,113,23,1,0,182,6,0,113,4,1,183,4,1,114,3,130,53,5,80,53,4,176,11,0,111,28,0,73,31,84,57,30,52
2017-08-08T23:59:58Z,118,192,175,111,190,117,171,108,95,66,0,0,0,0,0,0,2,190,2,117,0,192,0,118,0,0,0,0,0,0,0,0,47,48,96,33,48,63,94,97,0,63,70,0,190,1,0,117,20,0,99,93,0,65,67,0,191,1,0,117,20,0,192,0,0,118,19,0,190,2,0,117,20,0,42,146,4,27,98,3,179,10,2,112,26,1,179,10,2,112,26,1,0,188,4,0,116,3,0,188,4,0,116,3,131,55,6,80,55,5,182,9,0,114,24,0,76,32,84,59,29,52
2017-08-09T23:59:59Z,113,184,167,106,182,112,162,102,96,65,0,0,0,0,0,0,2,182,2,112,0,184,0,113,0,0,0,0,0,0,0,0,47,43,94,32,44,62,89,94,0,60,67,0,182,1,0,112,18,0,91,91,2,60,65,1,183,1,0,113,18,0,184,0,0,113,17,0,184,0,0,113,17,0,37,143,4,24,95,3,174,7,2,109,22,1,174,7,2,109,22,1,0,178,6,0,110,4,0,179,5,0,111,4,127,52,5,77,51,4,177,6,0,111,21,0,69,32,83,54,30,51
2017-08-10T23:59:58Z,117,192,175,110,190,116,170,106,95,64,0,0,0,0,0,0,2,190,2,116,0,192,0,117,0,0,0,0,0,0,0,0,48,48,96,33,45,64,94,97,0,62,70,0,190,1,0,116,18,0,99,93,0,64,67,0,192,0,0,117,17,0,192,0,0,117,17,0,189,3,0,116,19,0,40,148,4,26,97,3,180,9,2,113,23,1,180,9,2,113,23,1,0,188,4,0,115,3,0,188,4,0,115,3,129,58,5,79,54,4,180,11,0,111,25,0,76,32,84,59,29,52
2017-08-11T23:59:58Z,113,185,168,106,183,112,164,103,94,63,0,0,0,0,0,0,2,183,2,112,0,183,0,112,0,0,0,0,0,0,0,0,47,44,94,32,44,62,90,94,0,60,67,0,181,3,0,111,19,0,93,92,0,61,65,0,184,1,0,113,18,0,185,0,0,113,17,0,185,0,0,113,17,0,38,143,4,25,94,3,175,7,2,109,22,1,177,5,2,110,21,1,0,181,4,0,111,3,0,181,4,0,111,3,126,54,5,77,51,4,172,12,0,107,24,0,73,31,81,57,28,50
2017-08-12T23:59:59Z,117,191,174,110,189,116,169,106,98,66,0,0,0,0,0,0,2,189,2,116,0,189,0,116,0,0,0,0,0,0,0,0,50,46,95,35,45,62,94,96,0,63,69,0,188,2,0,115,19,0,97,94,0,63,67,0,189,2,0,115,19,0,191,0,0,117,17,0,190,1,0,116,18,0,37,150,4,24,99,3,177,11,2,110,25,1,176,12,2,110,26,1,0,186,5,0,115,4,0,187,4,0,115,3,128,58,5,78,54,4,176,14,0,109,25,0,76,34,81,59,30,50
2017-08-13T23:59:59Z,116,187,170,109,185,115,166,105,97,65,0,0,0,0,0,0,3,184,3,114,0,185,0,115,0,0,0,0,0,0,0,0,50,44,93,34,45,62,91,95,0,61,69,1,184,2,0,114,19,1,96,91,0,63,66,1,186,1,0,115,18,1,187,0,0,116,18,1,187,0,0,116,17,1,38,144,5,25,97,5,176,8,2,111,24,2,176,8,2,111,23,2,0,181,6,0,113,5,0,183,4,0,114,4,130,52,5,79,52,5,177,9,0,112,23,1,74,32,81,59,30,50
2017-08-14T23:59:59Z,118,190,173,111,188,117,170,108,102,68,0,0,0,0,0,0,2,188,2,117,0,190,0,118,0,0,0,0,0,0,0,0,50,41,99,35,45,66,91,96,2,62,71,2,189,0,0,118,20,1,95,95,0,63,70,1,189,1,0,117,22,1,190,0,0,118,21,1,189,1,0,117,21,1,40,146,4,27,99,4,177,10,2,112,27,2,177,10,2,112,27,2,0,184,6,0,115,5,0,186,4,0,116,4,133,52,5,82,54,5,179,10,0,113,26,1,71,35,84,58,32,53
2017-08-15T23:59:59Z,116,188,171,109,185,115,165,106,100,68,0,0,0,0,0,0,2,186,2,115,0,188,0,116,0,0,0,0,0,0,0,0,48,43,97,33,46,66,92,95,0,63,70,1,187,0,0,116,20,1,94,94,0,63,69,1,188,0,0,116,20,1,188,0,0,116,20,1,188,0,0,116,20,1,40,144,4,27,97,4,178,7,2,112,25,2,178,7,2,112,25,2,1,183,4,1,114,4,0,184,4,0,114,4,132,51,5,82,53,5,178,9,0,112,25,1,73,31,84,59,28,53
2017-08-16T23:59:59Z,119,191,174,112,189,118,168,108,103,69,0,0,0,0,0,0,2,189,2,117,0,191,0,119,0,0,0,0,0,0,0,0,51,42,98,35,47,66,90,100,0,63,72,1,188,2,0,118,23,1,93,98,0,63,72,1,190,1,0,119,23,1,191,0,0,119,22,1,190,1,0,119,23,1,39,148,4,26,100,4,180,8,2,115,27,2,179,9,2,115,28,2,0,187,4,0,116,4,0,187,4,0,116,4,133,53,5,82,56,5,181,9,0,116,27,1,71,36,84,60,31,53
2017-08-17T23:59:59Z,120,192,174,112,188,118,166,107,101,68,0,0,0,0,0,0,2,190,2,118,0,192,0,120,0,0,0,0,0,0,0,0,48,46,98,33,49,66,93,98,0,64,72,1,190,1,0,119,21,1,97,94,1,66,69,2,192,0,0,120,21,1,192,0,0,120,21,1,190,2,0,119,22,1,39,149,4,26,101,4,180,9,2,115,26,2,180,9,2,115,26,2,0,188,4,0,117,4,1,187,4,1,117,4,132,55,5,81,56,5,183,8,0,117,26,1,74,34,84,61,31,53